CZ-6A DEB, 60897

Orbit data source: Space-Track

CZ-6A DEB, 60897 is space debris in LEO originally from a launch on Tue, 06 Aug 2024 UTC launched from the Taiyaun Space Center, China (TSC). Debris objects in space refer to the collection of defunct objects orbiting the Earth. Examples of debris include non-operational satellites, rocket bodies, and fragments generated from explosions, collisions, or faulty payload assembly.

Loading next visibility...
Identifier
60897, 2024-140LC
Orbit
LEO
Country
Flag of CNCN / PRC
Related business
Manufacturer
SAST
Mission
Spacecraft
Bus & Motor
Unknown
Mass
Unknown
Launch date (UTC)
2024-08-06 (2 years ago)
Launch vehicle
Unknown
Launch site
Taiyaun Space Center, China (TSC)
Object type
Payload
Rocket body
Debris
Shape & HBR
Unknown shape, 0.1 m
Radar Cross Section
Small (<0.1 m²)

Expand to show TLE details & history
Last TLE update: 10 hours ago

TLE from 10 hours ago
0 CZ-6A DEB
1 60897U 24140LC  26130.14948353  .00002855  00000-0  55177-3 0  9998
2 60897  89.0326 277.4851 0091023  34.3208 326.3838 14.60501567 91579
Epoch: 2026-05-10T03:35Z
TLE epoch observation values (Epoch: 2026-05-10T03:35:15.376Z)
Latitude
-0.00015°
Longitude
-4.28568°
Altitude
641.247 km
Speed
7.566 km/s
True Right ascension
18h 29m 56s
True Declination
0° 00' 01"
Sunlit
Object was in full shadow at epoch
Visualization orbit readout
Latitude
Unknown
Longitude
Unknown
Altitude
Unknown
Speed
Unknown
Apparent Right ascension
Unknown
Apparent Declination
Unknown
Sunlit
N/A
Visualization observer readout
Local Sidereal Time
22:11:13
Azimuth
Unknown
Elevation
Unknown
Doppler factor
Unknown
Orbital elements
Apogee altitude
752.77 km
Perigee altitude
624.126 km
Semi-major axis
7,066.585 km
Eccentricity
0.0091
Inclination
89.0326°
RAAN
277.4851°
Arg. of periapsis
34.3208°
True anomaly
325.80083°
Mean anomaly
326.3838°
Eccentric anomaly
326.09287°
Mean motion
3.65367 °/min
Orbital period
98.53 mins
BSTAR
0.00055177
Loading maneuver chart data...
Computing Atmospheric mass density...
Loading historical data...
Loading historical data...
Loading historical data...
Loading historical data...
Loading historical data...
Loading historical data...
Loading historical data...

Documentation

Showing up to 5 results
|